Weather History for Duluth, MN

Change the Weather History Date:

Friday, November 2, 2012

  Actual Average Record
Temperature  
Mean Temperature 29 °F 36 °F  
Max Temperature 35 °F 43 °F 71 °F (1903)
Min Temperature 22 °F 29 °F -1 °F (1951)
Degree Days  
Heating Degree Days 36 29  
Month to date heating degree days 66 58  
Since 1 July heating degree days 1085 1183  
Cooling Degree Days 0 0  
Month to date cooling degree days 0 0  
Year to date cooling degree days 409 204  
Moisture  
Dew Point 22 °F    
Average Humidity 75    
Maximum Humidity 88    
Minimum Humidity 61    
Precipitation  
Precipitation 0.00 in 0.07 in 1.22 in (1961)
Month to date precipitation T 0.15  
Year to date precipitation 30.43 27.81  
Snow  
Snow 0.00 in 0.20 in 8.60 in (1992)
Month to date snowfall T 0.5  
Since 1 July snowfall 1.2 2.9  
Since 1 September snowfall 1.2 2.9  
Snow Depth 0.00 in    
Sea Level Pressure  
Sea Level Pressure 30.19 in    
Wind  
Wind Speed 5 mph (ENE)    
Max Wind Speed 15 mph    
Max Gust Speed 21 mph    
Visibility 10 miles    
Events      
T = Trace of Precipitation, MM = Missing Value Source: NWS Daily Summary

Daily Weather History Graph

Daily Weather History Graph

Search for Another Location

Airport:

Trip Planner

Search our weather history database for the weather conditions in past years. The results will help you decide how hot, cold, wet, or windy it might be!

Date:

Astronomy

Nov. 02, 2012 Rise Set
Actual Time 7:53 AM CDT 5:50 PM CDT
Civil Twilight 7:21 AM CDT 6:22 PM CDT
Nautical Twilight 6:45 AM CDT 6:58 PM CDT
Astronomical Twilight 6:10 AM CDT 7:33 PM CDT
Moon 8:30 PM CDT 11:22 AM CDT
Length of Visible Light 11h 01m
Length of Day
9h 57m
Waning Gibbous, 87% of the Moon is Illuminated
Nov 2
Waning Gibbous
Nov 6
Last Quarter
Nov 13
New
Nov 20
First Quarter
Nov 28
Full

Hourly Weather History & Observations

Time (CDT) Temp. Windchill Dew Point Humidity Pressure Visibility Wind Dir Wind Speed Gust Speed Precip Events Conditions
12:55 AM 28.9 °F 17.7 °F 21.9 °F 75% 30.10 in 10.0 mi NNW 15.0 mph - N/A   Partly Cloudy
1:55 AM 28.9 °F 18.2 °F 21.9 °F 75% 30.09 in 10.0 mi North 13.8 mph 20.7 mph N/A   Clear
2:55 AM 27.0 °F 19.5 °F 21.0 °F 78% 30.12 in 10.0 mi NNW 6.9 mph - N/A   Clear
3:55 AM 25.0 °F 20.7 °F 19.9 °F 81% 30.14 in 10.0 mi Variable 3.5 mph - N/A   Clear
4:55 AM 25.0 °F - 19.9 °F 81% 30.14 in 10.0 mi Calm Calm - N/A   Clear
5:55 AM 23.0 °F 18.4 °F 19.0 °F 85% 30.15 in 10.0 mi NW 3.5 mph - N/A   Partly Cloudy
6:55 AM 23.0 °F 14.7 °F 19.0 °F 85% 30.17 in 10.0 mi North 6.9 mph - N/A   Clear
7:55 AM 24.1 °F 16.0 °F 19.0 °F 81% 30.17 in 10.0 mi North 6.9 mph - N/A   Clear
8:55 AM 26.1 °F 16.8 °F 19.9 °F 78% 30.18 in 10.0 mi North 9.2 mph - N/A   Clear
9:55 AM 28.0 °F 21.7 °F 19.9 °F 72% 30.19 in 10.0 mi North 5.8 mph - N/A   Clear
10:55 AM 30.9 °F 27.5 °F 21.0 °F 67% 30.20 in 10.0 mi Variable 3.5 mph - N/A   Clear
11:55 AM 34.0 °F 29.8 °F 21.0 °F 59% 30.21 in 10.0 mi ESE 4.6 mph - N/A   Clear
12:55 PM 34.0 °F - 21.9 °F 61% 30.21 in 10.0 mi Calm Calm - N/A   Clear
1:55 PM 34.0 °F 28.8 °F 23.0 °F 64% 30.20 in 10.0 mi SE 5.8 mph - N/A   Clear
2:55 PM 34.0 °F 29.8 °F 24.1 °F 67% 30.19 in 10.0 mi SE 4.6 mph - N/A   Clear
3:55 PM 33.1 °F 26.1 °F 24.1 °F 70% 30.19 in 10.0 mi ESE 8.1 mph - N/A   Clear
4:55 PM 30.0 °F 26.5 °F 23.0 °F 75% 30.21 in 10.0 mi ESE 3.5 mph - N/A   Clear
5:55 PM 28.9 °F 23.9 °F 21.9 °F 75% 30.22 in 10.0 mi East 4.6 mph - N/A   Clear
6:55 PM 28.9 °F - 23.0 °F 78% 30.24 in 10.0 mi Calm Calm - N/A   Clear
7:55 PM 28.9 °F 22.8 °F 23.0 °F 78% 30.22 in 10.0 mi ENE 5.8 mph - N/A   Clear
8:55 PM 30.0 °F 23.2 °F 24.1 °F 79% 30.23 in 10.0 mi ENE 6.9 mph - N/A   Clear
9:55 PM 28.9 °F 23.9 °F 24.1 °F 82% 30.24 in 10.0 mi East 4.6 mph - N/A   Clear
10:55 PM 28.9 °F 22.8 °F 24.1 °F 82% 30.25 in 10.0 mi East 5.8 mph - N/A   Clear
11:55 PM 28.9 °F 23.9 °F 24.1 °F 82% 30.25 in 10.0 mi ESE 4.6 mph - N/A   Partly Cloudy